This demonstration page uses our WeatherBlox Daily Observations layout. Learn more.

Hourly Observations for October 16, 2015

Temp ( °F °C ) Dew Point ( °F °C ) Humidity (%) Winds ( mph kmh ) Pressure ( in mb ) Visibility ( mi km ) Precip ( " mm )
12:15 am 00:15 Clear 41 5 30 -1 66 66 Calm 30.53 1034 10 16.09344 0 0
12:35 am 00:35 Clear 39 4 30 -1 70 70 NNW 3 6 30.53 1034 10 16.09344 0 0
12:55 am 00:55 Clear 39 4 30 -1 70 70 NW 5 7 30.53 1034 10 16.09344 0 0
1:15 am 01:15 Clear 39 4 30 -1 70 70 NW 5 7 30.53 1034 10 16.09344 0 0
1:35 am 01:35 Clear 37 3 30 -1 75 75 NW 3 6 30.56 1035 10 16.09344 0 0
1:55 am 01:55 Clear 37 3 30 -1 75 75 Calm 30.56 1035 10 16.09344 0 0
2:15 am 02:15 Clear 37 3 30 -1 75 75 NNW 3 6 30.56 1035 10 16.09344 0 0
2:35 am 02:35 Clear 36 2 30 -1 81 81 NNW 3 6 30.56 1035 10 16.09344 0 0
2:55 am 02:55 Clear 37 3 30 -1 75 75 N 6 9 30.56 1035 10 16.09344 0 0
3:15 am 03:15 Clear 36 2 30 -1 81 81 N 3 6 30.56 1035 10 16.09344 0 0
3:35 am 03:35 Clear 36 2 30 -1 81 81 N 3 6 30.56 1035 10 16.09344 0 0
3:55 am 03:55 Clear 36 2 30 -1 81 81 N 5 7 30.56 1035 10 16.09344 0 0
4:15 am 04:15 Clear 36 2 30 -1 81 81 NNW 3 6 30.56 1035 10 16.09344 0 0
4:35 am 04:35 Clear 37 3 30 -1 75 75 Calm 30.56 1035 10 16.09344 0 0
4:55 am 04:55 Clear 37 3 30 -1 75 75 Calm 30.56 1035 10 16.09344 0 0
5:15 am 05:15 Clear 34 1 30 -1 87 87 Calm 30.56 1035 10 16.09344 0 0
5:35 am 05:35 Clear 36 2 30 -1 81 81 NW 3 6 30.56 1035 10 16.09344 0 0
5:55 am 05:55 Clear 34 1 30 -1 87 87 NNW 3 6 30.56 1035 10 16.09344 0 0
6:15 am 06:15 Clear 34 1 28 -2 81 81 NNW 3 6 30.56 1035 10 16.09344 0 0
6:35 am 06:35 Clear 32 0 28 -2 87 87 NW 3 6 30.59 1036 10 16.09344 0 0
6:55 am 06:55 Clear 32 0 28 -2 87 87 Calm 30.62 1037 10 16.09344 0 0
7:15 am 07:15 Clear 32 0 28 -2 87 87 Calm 30.62 1037 10 16.09344 0 0
7:35 am 07:35 Clear 32 0 28 -2 87 87 NW 3 6 30.62 1037 10 16.09344 0 0
7:55 am 07:55 Sunny 32 0 28 -2 87 87 Calm 30.62 1037 10 16.09344 0 0
8:15 am 08:15 Sunny 32 0 27 -3 80 80 Calm 30.62 1037 10 16.09344 0 0
8:35 am 08:35 Sunny 34 1 30 -1 87 87 Calm 30.62 1037 10 16.09344 0 0
8:55 am 08:55 Sunny 37 3 30 -1 75 75 Calm 30.59 1036 10 16.09344 0 0
9:15 am 09:15 Sunny 39 4 30 -1 70 70 Calm 30.62 1037 10 16.09344 0 0
9:35 am 09:35 Sunny 43 6 30 -1 61 61 Calm 30.56 1035 10 16.09344 0 0
9:55 am 09:55 Sunny 45 7 30 -1 57 57 Calm 30.59 1036 10 16.09344 0 0
10:15 am 10:15 Sunny 48 9 28 -2 46 46 Calm 30.56 1035 10 16.09344 0 0
10:30 am 10:30 Sunny 50 10 28 -2 43 43 E 3 6 30.53 1034 10 16.09344 0 0
10:55 am 10:55 Sunny 52 11 27 -3 38 38 ESE 7 11 30.5 1033 10 16.09344 0 0
11:15 am 11:15 Sunny 54 12 25 -4 33 33 SE 6 9 30.5 1033 10 16.09344 0 0
11:35 am 11:35 Sunny 54 12 23 -5 30 30 SSE 6 9 30.5 1033 10 16.09344 0 0
11:55 am 11:55 Sunny 55 13 23 -5 28 28 SE 3 6 30.5 1033 10 16.09344 0 0
12:15 pm 12:15 Sunny 55 13 23 -5 28 28 SE 3 6 30.48 1032 10 16.09344 0 0
12:35 pm 12:35 Sunny 57 14 23 -5 27 27 ESE 5 7 30.45 1031 10 16.09344 0 0
12:55 pm 12:55 Sunny 57 14 23 -5 27 27 SSW 6 9 30.45 1031 10 16.09344 0 0
1:15 pm 13:15 Sunny 59 15 21 -6 23 23 SSE 3 6 30.45 1031 10 16.09344 0 0
1:35 pm 13:35 Sunny 59 15 23 -5 25 25 ESE 5 7 30.42 1030 10 16.09344 0 0
1:55 pm 13:55 Sunny 59 15 23 -5 25 25 ESE 3 6 30.42 1030 10 16.09344 0 0
2:15 pm 14:15 Sunny 61 16 23 -5 23 23 S 5 7 30.39 1029 10 16.09344 0 0
2:35 pm 14:35 Sunny 61 16 23 -5 23 23 S 3 6 30.39 1029 10 16.09344 0 0
2:55 pm 14:55 Sunny 61 16 23 -5 23 23 S 9 15 30.36 1028 10 16.09344 0 0
3:15 pm 15:15 Sunny 61 16 23 -5 23 23 S 8 13 30.36 1028 10 16.09344 0 0
3:35 pm 15:35 Sunny 63 17 23 -5 22 22 SSW 12 19 30.33 1027 10 16.09344 0 0
3:55 pm 15:55 Sunny 63 17 25 -4 24 24 SSE 5 7 30.33 1027 10 16.09344 0 0
4:15 pm 16:15 Sunny 63 17 23 -5 22 22 S 10 17 30.3 1026 10 16.09344 0 0
4:35 pm 16:35 Sunny 63 17 23 -5 22 22 S 9 15 30.3 1026 10 16.09344 0 0
4:55 pm 16:55 Sunny 63 17 23 -5 22 22 SSE 8 13 30.3 1026 10 16.09344 0 0
5:15 pm 17:15 Sunny 63 17 23 -5 22 22 S 8 13 30.3 1026 10 16.09344 0 0
5:35 pm 17:35 Sunny 61 16 23 -5 23 23 S 7 11 30.3 1026 10 16.09344 0 0
5:55 pm 17:55 Sunny 61 16 25 -4 25 25 S 10 17 30.27 1025 10 16.09344 0 0
6:15 pm 18:15 Sunny 61 16 25 -4 25 25 SSE 8 13 30.27 1025 10 16.09344 0 0
6:35 pm 18:35 Sunny 59 15 25 -4 27 27 SSE 6 9 30.3 1026 10 16.09344 0 0
6:55 pm 18:55 Sunny 55 13 25 -4 31 31 SSE 6 9 30.3 1026 10 16.09344 0 0
7:15 pm 19:15 Clear 52 11 25 -4 35 35 SE 7 11 30.33 1027 10 16.09344 0 0
7:35 pm 19:35 Clear 48 9 25 -4 40 40 SE 6 9 30.33 1027 10 16.09344 0 0
7:55 pm 19:55 Clear 48 9 25 -4 40 40 SE 8 13 30.33 1027 7 11.265408 0 0
8:15 pm 20:15 Clear 48 9 25 -4 40 40 SE 8 13 30.33 1027 10 16.09344 0 0
8:35 pm 20:35 Clear 46 8 25 -4 43 43 SE 7 11 30.39 1029 10 16.09344 0 0
8:55 pm 20:55 Clear 46 8 25 -4 43 43 SSE 9 15 30.36 1028 10 16.09344 0 0
9:15 pm 21:15 Clear 46 8 25 -4 43 43 SSE 8 13 30.36 1028 10 16.09344 0 0
9:35 pm 21:35 Clear 46 8 27 -3 46 46 SE 8 13 30.39 1029 10 16.09344 0 0
9:55 pm 21:55 Clear 45 7 27 -3 49 49 SE 8 13 30.36 1028 10 16.09344 0 0
10:15 pm 22:15 Clear 43 6 25 -4 49 49 SE 7 11 30.39 1029 10 16.09344 0 0
10:35 pm 22:35 Clear 43 6 25 -4 49 49 SE 8 13 30.39 1029 10 16.09344 0 0
10:55 pm 22:55 Clear 43 6 25 -4 49 49 SSE 8 13 30.39 1029 10 16.09344 0 0
11:15 pm 23:15 Clear 43 6 27 -3 53 53 SSE 9 15 30.39 1029 10 16.09344 0 0
11:35 pm 23:35 Clear 45 7 25 -4 46 46 SSE 9 15 30.39 1029 10 16.09344 0 0
11:55 pm 23:55 Clear 45 7 25 -4 46 46 SSE 9 15 30.39 1029 10 16.09344 0 0

Powered by AerisWeather